Effective Sunday, March 17, 2024, the National Weather Service National Data Buoy Center will discontinue its Dial-A-Buoy Interactive Voice Response system. For more information, see Service Change Notice 24-06 (PDF).

Station SXHW3 - Saxon Harbor, WI Image indicating link to RSS feed of recent meteorological observations for station SXHW3


Conditions at SXHW3 as of
(6:40 am CST)
1240 GMT on 03/03/2024:
     

Click on the graph icon in the table below to see a time series plot of the last five days of that observation.

5-day plot - Wind Speed Wind Speed (WSPD): 0.0 kts
5-day plot - Wind Gust Wind Gust (GST): 0.0 kts
5-day plot - Atmospheric Pressure Atmospheric Pressure (PRES):29.71 in
5-day plot - Air Temperature Air Temperature (ATMP): 34.5 °F
5-day plot - Wind Speed at 10 Meters Wind Speed at 10 meters (WSPD10M): 0.0 kts
5-day plot - Wind Speed at 20 Meters Wind Speed at 20 meters (WSPD20M): 0.0 kts
5-day plot -  Wind Speed, Wind Gust and Atmospheric Pressure Combined plot of Wind Speed, Gust, and Air Pressure
Previous observations
TIME
(CST)
5-day plot - Wind Direction
WDIR
 
5-day plot - Wind Speed
WSPD
kts
5-day plot - Wind Gust
GST
kts
5-day plot - Wave Height
WVHT
ft
5-day plot - Dominant Wave Period
DPD
sec
5-day plot - Average Wave Period
APD
sec
5-day plot - Mean Wave Direction
MWD
 
5-day plot - Atmospheric Pressure
PRES
in
5-day plot - Pressure Tendency
PTDY
in
5-day plot - Air Temperature
ATMP
°F
5-day plot - Water Temperature
WTMP
°F
5-day plot - Dew Point
DEWP
°F
5-day plot - Salinity
SAL
psu
5-day plot - Visibility
VIS
nmi
5-day plot - Tide (above MLLW)
TIDE
ft
2024-03-03 06:30 am- 0.0 0.0----29.72- 34.2-----
2024-03-03 06:20 am- 0.0 0.0----29.72- 34.2-----
2024-03-03 06:10 am- 0.0 0.0----29.73- 33.4-----
2024-03-03 06:00 am- 0.0 1.9----29.73-0.03 33.1-----
2024-03-03 05:50 am- 0.0 0.0----29.73- 33.6-----
2024-03-03 05:40 am- 0.0 1.0----29.72- 31.8-----
2024-03-03 05:30 am- 0.0 0.0----29.72- 31.3-----
2024-03-03 05:20 am- 0.0 0.0----29.72- 30.6-----
2024-03-03 05:10 am- 0.0 0.0----29.72- 30.0-----
2024-03-03 05:00 am- 0.0 0.0----29.72-0.08 29.1-----
2024-03-03 04:50 am- 0.0 0.0----29.73- 28.2-----
2024-03-03 04:40 am- 0.0 0.0----29.74- 27.7-----
2024-03-03 04:30 am- 0.0 0.0----29.74- 27.9-----
2024-03-03 04:20 am- 0.0 2.9----29.74- 27.9-----
2024-03-03 04:10 am- 0.0 1.9----29.74- 27.9-----
2024-03-03 04:00 am- 0.0 2.9----29.74-0.09 28.2-----
2024-03-03 03:50 am- 0.0 0.0----29.75- 27.9-----
2024-03-03 03:40 am- 0.0 1.0----29.75- 28.0-----
2024-03-03 03:30 am- 0.0 0.0----29.75- 27.9-----
2024-03-03 03:20 am- 0.0 0.0----29.75- 28.0-----
2024-03-03 03:10 am- 0.0 1.9----29.76- 27.9-----
2024-03-03 03:00 am- 0.0 1.0----29.76-0.09 28.2-----
2024-03-03 02:50 am- 0.0 0.0----29.77- 28.0-----
2024-03-03 02:40 am- 0.0 1.0----29.78- 27.9-----
2024-03-03 02:30 am- 0.0 0.0----29.78- 28.0-----
2024-03-03 02:20 am- 0.0 0.0----29.78- 27.9-----
2024-03-03 02:10 am- 0.0 0.0----29.79- 28.2-----
2024-03-03 02:00 am- 0.0 0.0----29.80-0.03 28.6-----
2024-03-03 01:50 am- 0.0 0.0----29.81- 28.6-----
2024-03-03 01:40 am- 0.0 0.0----29.81- 28.8-----
2024-03-03 01:30 am- 0.0 1.9----29.81- 29.1-----
2024-03-03 01:20 am- 0.0 0.0----29.82- 29.1-----
2024-03-03 01:10 am- 0.0 0.0----29.82- 29.1-----
2024-03-03 01:00 am- 0.0 0.0----29.83+0.00 29.3-----
2024-03-03 12:50 am- 0.0 1.0----29.83- 29.3-----
2024-03-03 12:40 am- 0.0 5.1----29.84- 29.3-----
2024-03-03 12:30 amSSW 1.0 2.9----29.84- 29.3-----
2024-03-03 12:20 am- 0.0 2.9----29.85- 29.3-----
2024-03-03 12:10 am- 0.0 2.9----29.85- 29.3-----
2024-03-03 12:00 am- 0.0 1.9----29.85+0.02 29.3-----
2024-03-02 11:50 pm- 0.0 2.9----29.85- 29.5-----
2024-03-02 11:40 pm S 1.9 22.9----29.85- 29.3-----
2024-03-02 11:30 pmSSW 1.9 4.1----29.84- 29.1-----
2024-03-02 11:20 pm- 0.0 0.0----29.83- 29.1-----
2024-03-02 11:10 pm- 0.0 1.9----29.83- 29.3-----
2024-03-02 11:00 pm- 0.0 1.9----29.83-0.01 29.1-----
2024-03-02 10:50 pm- 0.0 1.9----29.83- 29.1-----
2024-03-02 10:40 pm- 0.0 1.9----29.83- 29.1-----
2024-03-02 10:30 pm- 0.0 1.9----29.83- 29.3-----
2024-03-02 10:20 pm- 0.0 0.0----29.83- 29.5-----
2024-03-02 10:10 pm- 0.0 1.0----29.83- 29.5-----
2024-03-02 10:00 pm- 0.0 0.0----29.83+0.00 29.7-----
2024-03-02 09:50 pm- 0.0 1.0----29.83- 29.5-----
2024-03-02 09:40 pm- 0.0 1.9----29.83- 29.8-----
2024-03-02 09:30 pm- 0.0 1.9----29.83- 30.0-----
2024-03-02 09:20 pm- 0.0 0.0----29.83- 29.8-----
2024-03-02 09:10 pm- 0.0 0.0----29.83- 30.0-----
2024-03-02 09:00 pm- 0.0 0.0----29.83+0.00 30.2-----
2024-03-02 08:50 pm- 0.0 0.0----29.83- 30.4-----
2024-03-02 08:40 pm- 0.0 0.0----29.84- 30.6-----
2024-03-02 08:30 pm- 0.0 0.0----29.84- 30.6-----
2024-03-02 08:20 pm- 0.0 0.0----29.84- 30.9-----
2024-03-02 08:10 pm- 0.0 0.0----29.84- 31.3-----
2024-03-02 08:00 pm- 0.0 1.9----29.84+0.00 31.5-----
2024-03-02 07:50 pm- 0.0 2.9----29.84- 31.5-----
2024-03-02 07:40 pm- 0.0 0.0----29.84- 31.6-----
2024-03-02 07:30 pm- 0.0 0.0----29.84- 31.5-----
2024-03-02 07:20 pm- 0.0 0.0----29.83- 31.8-----
2024-03-02 07:10 pm- 0.0 0.0----29.83- 32.2-----
2024-03-02 07:00 pm- 0.0 1.9----29.83-0.01 32.7-----
2024-03-02 06:50 pm- 0.0 0.0----29.83- 32.9-----
2024-03-02 06:40 pm- 0.0 1.9----29.83- 32.7-----
2024-03-02 06:30 pm- 0.0 2.9----29.83- 33.3-----
2024-03-02 06:20 pm- 0.0 0.0----29.83- 33.4-----
2024-03-02 06:10 pm- 0.0 0.0----29.83- 33.8-----
2024-03-02 06:00 pm- 0.0 0.0----29.83-0.02 34.9-----
2024-03-02 05:50 pm- 0.0 1.9----29.83- 36.3-----
2024-03-02 05:40 pm- 0.0 2.9----29.83- 36.3-----
2024-03-02 05:30 pm- 0.0 2.9----29.83- 36.5-----
2024-03-02 05:20 pmENE 1.9 12.0----29.83- 36.7-----
2024-03-02 05:10 pm N 6.0 8.9----29.83- 36.7-----
2024-03-02 05:00 pm N 4.1 7.0----29.84-0.02 36.9-----
2024-03-02 04:50 pmNNW 6.0 11.1----29.84- 35.8-----
2024-03-02 04:40 pm NW 9.9 12.0----29.85- 35.8-----
2024-03-02 04:30 pm NW 9.9 12.0----29.85- 36.0-----
2024-03-02 04:20 pmWNW 11.1 13.0----29.85- 36.1-----
2024-03-02 04:10 pm NW 11.1 14.0----29.85- 35.4-----
2024-03-02 04:00 pmNNW 11.1 13.0----29.84-0.04 36.5-----
2024-03-02 03:50 pmNNE 11.1 13.0----29.84- 37.0-----
2024-03-02 03:40 pm N 8.9 12.0----29.84- 36.3-----
2024-03-02 03:30 pm N 5.1 6.0----29.84- 36.9-----
2024-03-02 03:20 pm NW 2.9 5.1----29.84- 37.2-----
2024-03-02 03:10 pm N 4.1 8.9----29.85- 36.9-----
2024-03-02 03:00 pmNNW 8.0 9.9----29.85-0.03 36.3-----
2024-03-02 02:50 pmNNW 8.0 11.1----29.86- 36.9-----
2024-03-02 02:40 pm N 8.9 9.9----29.86- 36.9-----
2024-03-02 02:30 pm N 8.9 11.1----29.86- 37.2-----
2024-03-02 02:20 pm N 8.0 9.9----29.86- 37.6-----
2024-03-02 02:10 pm N 7.0 9.9----29.86- 37.4-----
2024-03-02 02:00 pmNNE 8.0 8.9----29.86-0.04 37.0-----
2024-03-02 01:50 pm N 7.0 9.9----29.86- 36.7-----
2024-03-02 01:40 pm N 7.0 8.9----29.86- 37.0-----
2024-03-02 01:30 pmNNE 6.0 8.0----29.86- 36.9-----
2024-03-02 01:20 pm- 0.0 5.1----29.86- 37.4-----
2024-03-02 01:10 pm- 0.0 2.9----29.87- 37.6-----
2024-03-02 01:00 pm- 0.0 0.0----29.88-0.02 37.4-----
2024-03-02 12:50 pm- 0.0 0.0----29.88- 37.6-----
2024-03-02 12:40 pm- 0.0 1.9----29.88- 37.9-----
2024-03-02 12:30 pm- 0.0 5.1----29.88- 38.3-----
2024-03-02 12:20 pm- 0.0 2.9----29.89- 38.8-----
2024-03-02 12:10 pm- 0.0 0.0----29.88- 38.5-----
2024-03-02 12:00 pm- 0.0 0.0----29.88-0.01 38.3-----
2024-03-02 11:50 am- 0.0 0.0----29.89- 37.6-----
2024-03-02 11:40 am- 0.0 4.1----29.90- 37.8-----
2024-03-02 11:30 am NE 4.1 5.1----29.89- 38.8-----
2024-03-02 11:20 am- 0.0 0.0----29.89- 39.6-----
2024-03-02 11:10 am- 0.0 1.9----29.90- 38.3-----
2024-03-02 11:00 am NW 1.0 2.9----29.90+0.01 38.5-----
2024-03-02 10:50 am- 0.0 0.0----29.90- 40.3-----
2024-03-02 10:40 am- 0.0 4.1----29.90- 38.8-----
2024-03-02 10:30 amNNW 1.9 5.1----29.90- 38.3-----
2024-03-02 10:20 am NW 4.1 6.0----29.90- 38.5-----
2024-03-02 10:10 amWNW 5.1 7.0----29.90- 39.6-----
2024-03-02 10:00 am S 4.1 8.0----29.90+0.01 46.6-----
2024-03-02 09:50 am SW 6.0 8.9----29.90- 45.7-----
2024-03-02 09:40 amSSW 6.0 9.9----29.89- 45.7-----
2024-03-02 09:30 am S 7.0 11.1----29.89- 44.8-----
2024-03-02 09:20 amSSW 7.0 11.1----29.89- 44.4-----
2024-03-02 09:10 amSSW 7.0 11.1----29.89- 44.1-----
2024-03-02 09:00 amSSW 9.9 13.0----29.89+0.00 43.5-----
2024-03-02 08:50 amSSW 7.0 12.0----29.89- 43.3-----
2024-03-02 08:40 am S 8.0 13.0----29.89- 43.0-----
2024-03-02 08:30 am S 7.0 11.1----29.89- 42.3-----
2024-03-02 08:20 am S 7.0 12.0----29.90- 41.5-----
2024-03-02 08:10 am S 7.0 8.9----29.89- 41.0-----
2024-03-02 08:00 am S 7.0 11.1----29.89+0.02 40.5-----
2024-03-02 07:50 am S 6.0 9.9----29.90- 39.7-----
2024-03-02 07:40 am S 7.0 11.1----29.90- 39.2-----
2024-03-02 07:30 am S 7.0 13.0----29.90- 38.8-----
2024-03-02 07:20 am S 5.1 8.9----29.90- 38.3-----
2024-03-02 07:10 am S 5.1 8.9----29.90- 37.9-----
2024-03-02 07:00 am S 5.1 11.1----29.89+0.05 37.9-----
2024-03-02 06:50 am S 5.1 8.0----29.89- 38.1-----